Location: Ammerl�gen
(47.2167°N, 9.6000°E)
Time: 11:40:07
(UTC+00:00)

RS-15 - Pass Details

Date: 07 December 2021
Orbit: 1882 x 2162 km, 64.8° (Epoch: 22 January)

Event Time Altitude Azimuth Distance (km) Brightness Sun altitude
Exits shadow 03:07:16 76° 278° (W) 2,118 7.8 -37.5°
Maximum altitude 03:07:57 78° 310° (NW) 2,110 7.9 -37.4°
Drops below altitude 10° 03:20:12 10° 38° (NE) 4,652 10.4 -35.4°
Sets 03:23:43 0° 40° (NE) 5,677 11.0 -34.8°
